Tracking 27420 objects as of 28-May-2023
HD Live streaming from Space Station
objects crossing your sky now

COSMOS 1741 DEB *

Track COSMOS 1741 DEB * now!
10-day predictions


NORAD ID: 19235
Int'l Code: 1986-030H
Perigee: 933.6 km
Apogee: 939.7 km
Inclination: 74.0 °
Period: 103.6 minutes
Semi major axis: 7307 km
RCS: 0.0103 m2 (small)
Launch date: April 17, 1986
Source: Commonwealth of Independent States (former USSR) (CIS)
Launch site: PLESETSK MISSILE AND SPACE COMPLEX (PKMTR)

Note: This is SATELLITE DEBRIS
Your satellite tracking list
Your tracking list is empty




NASA's NSSDC Master Catalog

Two Line Element Set (TLE):
1 19235U 70102G   23147.85460668  .00000237  00000-0  21207-3 0  9997
2 19235  74.0189 182.6188 0004189  22.0758 151.7644 13.89740140931144
Source of the keplerian elements: AFSPC